Here is the Quick Look data you requested

The Data originates at the National Weather Service, and is made available here by the UAlbany Department of Atmospheric and Environmental Sciences

Surface Observations

KNUI 240553Z AUTO 00000KT 9SM CLR 21/21 A2987 RMK AO2 SLP113 T02110211 10244
 20211 56012=
KNUI 240653Z AUTO 00000KT 8SM CLR 21/20 A2985 RMK AO2 SLP109 T02060200
KNUI 240653Z AUTO 00000KT 8SM CLR 21/20 A2985 RMK AO2 SLP109 T02060200=
KNUI 240753Z AUTO 00000KT 7SM CLR 20/19 A2984 RMK AO2 SLP104 T02000194
KNUI 240753Z AUTO 00000KT 7SM CLR 20/19 A2984 RMK AO2 SLP104 T02000194=
KNUI 240853Z AUTO 00000KT 8SM CLR 20/20 A2984 RMK AO2 SLP103 T02000200 56010
KNUI 240853Z AUTO 00000KT 8SM CLR 20/20 A2984 RMK AO2 SLP103 T02000200 56010=
KNUI 240953Z AUTO 00000KT 9SM CLR 21/21 A2985 RMK AO2 SLP108 T02110206
KNUI 240953Z AUTO 00000KT 9SM CLR 21/21 A2985 RMK AO2 SLP108 T02110206=
KNUI 241053Z AUTO 00000KT 8SM CLR 22/21 A2986 RMK AO2 SLP111 T02220206
KNUI 241053Z AUTO 00000KT 8SM CLR 22/21 A2986 RMK AO2 SLP111 T02220206=
KNUI 241105Z AUTO 00000KT 9SM FEW002 22/21 A2986 RMK AO2 T02220211
KNUI 241105Z AUTO 00000KT 9SM FEW002 22/21 A2986 RMK AO2 T02220211=
KNUI 241153Z AUTO 29003KT 10SM CLR 22/21 A2986 RMK AO2 SLP111 T02220206 10222
 20194 51008
KNUI 241153Z AUTO 29003KT 10SM CLR 22/21 A2986 RMK AO2 SLP111 T02220206 10222
 20194 51008=
KNUI 241253Z AUTO 29005KT 10SM CLR 23/21 A2988 RMK AO2 RAB23E33 SLP116 P0000
 T02280206
KNUI 241253Z AUTO 29005KT 10SM CLR 23/21 A2988 RMK AO2 RAB23E33 SLP116 P0000
 T02280206=
KNUI 241353Z AUTO 00000KT 10SM CLR 25/21 A2987 RMK AO2 SLP113 T02500211
KNUI 241353Z AUTO 00000KT 10SM CLR 25/21 A2987 RMK AO2 SLP113 T02500211=
KNUI 241453Z AUTO VRB05KT 10SM CLR 27/21 A2987 RMK AO2 SLP114 60000 T02670206
 51003
KNUI 241453Z AUTO VRB05KT 10SM CLR 27/21 A2987 RMK AO2 SLP114 60000 T02670206
 51003=
KNUI 241538Z AUTO 11006KT 10SM BKN028 OVC033 27/21 A2987 RMK AO2 T02720211
KNUI 241538Z AUTO 11006KT 10SM BKN028 OVC033 27/21 A2987 RMK AO2 T02720211=
KNUI 241553Z AUTO 10007KT 10SM BKN028 BKN032 27/22 A2986 RMK AO2 SLP111
 T02720217
KNUI 241553Z AUTO 10007KT 10SM BKN028 BKN032 27/22 A2986 RMK AO2 SLP111
 T02720217=
KNUI 241653Z AUTO 10008KT 9SM TS SCT021 26/22 A2985 RMK AO2 TSB53 SLP108
 T02560217
KNUI 241653Z AUTO 10008KT 9SM TS SCT021 26/22 A2985 RMK AO2 TSB53 SLP108
 T02560217=
KNUI 241732Z AUTO 07006KT 9SM TS BKN016 BKN120 24/21 A2985 RMK AO2 TSB1658
 T02440211
KNUI 241732Z AUTO 07006KT 9SM TS BKN016 BKN120 24/21 A2985 RMK AO2 TSB1658
 T02440211=
KNUI 241745Z AUTO 04003KT 2 1/2SM +TSRA BR SCT016 BKN060 OVC100 23/22 A2985 RMK
 AO2 RAB40 TSB1658 P0001 T02330217
KNUI 241745Z AUTO 04003KT 2 1/2SM +TSRA BR SCT016 BKN060 OVC100 23/22 A2985 RMK
 AO2 RAB40 TSB1658 P0001 T02330217=
KNUI 241753Z AUTO 02003KT 2 1/2SM -TSRA BR SCT016 SCT047 OVC100 23/22 A2985 RMK
 AO2 RAB40 TSB1658 SLP108 P0002 60002 T02280222 10278 20222 55006
KNUI 241753Z AUTO 02003KT 2 1/2SM -TSRA BR SCT016 SCT047 OVC100 23/22 A2985 RMK
 AO2 RAB40 TSB1658 SLP108 P0002 60002 T02280222 10278 20222 55006=
KNUI 241801Z AUTO 4SM -TSRA BR FEW015 BKN090 OVC110 23/22 A2986 RMK AO2 P0000
 T02280222
KNUI 241801Z AUTO 4SM -TSRA BR FEW015 BKN090 OVC110 23/22 A2986 RMK AO2 P0000
 T02280222=
KNUI 241853Z AUTO 00000KT 4SM -TSRA BR SCT043 SCT070 OVC100 23/22 A2984 RMK AO2
 TSB09 SLP104 P0001 T02280222=
KNUI 241910Z AUTO 10004KT 5SM BR FEW029 SCT039 BKN070 24/23 A2984 RMK AO2 RAE00
 TSE04 P0000 T02390228
KNUI 241910Z AUTO 10004KT 5SM BR FEW029 SCT039 BKN070 24/23 A2984 RMK AO2 RAE00
 TSE04 P0000 T02390228=
KNUI 241953Z AUTO 12005KT 10SM FEW110 26/21 A2983 RMK AO2 RAE00 TSE04 SLP100
 P0000 T02610206
KNUI 241953Z AUTO 12005KT 10SM FEW110 26/21 A2983 RMK AO2 RAE00 TSE04 SLP100
 P0000 T02610206=
KNUI 242053Z AUTO 07005KT 10SM FEW110 27/21 A2983 RMK AO2 SLP100 60001
 T02670206 56008
KNUI 242053Z AUTO 07005KT 10SM FEW110 27/21 A2983 RMK AO2 SLP100 60001
 T02670206 56008=
KNUI 242153Z AUTO 26005KT 10SM FEW110 26/22 A2983 RMK AO2 SLP100 T02610217
KNUI 242153Z AUTO 26005KT 10SM FEW110 26/22 A2983 RMK AO2 SLP100 T02610217=
KNUI 242253Z AUTO 17004KT 10SM CLR 25/21 A2982 RMK AO2 SLP098 T02500211
KNUI 242253Z AUTO 17004KT 10SM CLR 25/21 A2982 RMK AO2 SLP098 T02500211=
KNUI 242353Z AUTO VRB03KT 10SM CLR 23/21 A2982 RMK AO2 SLP097 60001 T02330211
 10272 20228 58003
KNUI 242353Z AUTO VRB03KT 10SM CLR 23/21 A2982 RMK AO2 SLP097 60001 T02330211
 10272 20228 58003=
KNUI 250043Z AUTO 13003KT 9SM FEW003 22/21 A2983 RMK AO2 T02220211
KNUI 250043Z AUTO 13003KT 9SM FEW003 22/21 A2983 RMK AO2 T02220211=
KNUI 250053Z AUTO 00000KT 8SM FEW003 22/21 A2983 RMK AO2 SLP102 T02170211
KNUI 250053Z AUTO 00000KT 8SM FEW003 22/21 A2983 RMK AO2 SLP102 T02170211=
KNUI 250153Z AUTO 00000KT 6SM BR CLR 21/21 A2986 RMK AO2 SLP111 T02110206
KNUI 250153Z AUTO 00000KT 6SM BR CLR 21/21 A2986 RMK AO2 SLP111 T02110206=
KNUI 250253Z AUTO 00000KT 6SM BR CLR 21/20 A2986 RMK AO2 SLP112 T02060200 51016
KNUI 250253Z AUTO 00000KT 6SM BR CLR 21/20 A2986 RMK AO2 SLP112 T02060200 51016=
KNUI 250353Z AUTO 00000KT 5SM BR CLR 20/20 A2987 RMK AO2 SLP112 T02000200
KNUI 250353Z AUTO 00000KT 5SM BR CLR 20/20 A2987 RMK AO2 SLP112 T02000200=
KNUI 250453Z AUTO 00000KT 4SM BR CLR 19/19 A2986 RMK AO2 SLP109 T01890189
 402780189
KNUI 250453Z AUTO 00000KT 4SM BR CLR 19/19 A2986 RMK AO2 SLP109 T01890189
 402780189=
KNUI 250553Z AUTO 00000KT 4SM BR CLR 18/18 A2984 RMK AO2 SLP105 T01830183 10233
 20183 58007
KNUI 250553Z AUTO 00000KT 4SM BR CLR 18/18 A2984 RMK AO2 SLP105 T01830183 10233
 20183 58007=
KNUI 250653Z AUTO 00000KT 5SM BR CLR 18/18 A2983 RMK AO2 SLP102 T01830183
KNUI 250653Z AUTO 00000KT 5SM BR CLR 18/18 A2983 RMK AO2 SLP102 T01830183=
KNUI 250723Z AUTO 00000KT 1 3/4SM BR CLR 18/18 A2983 RMK AO2 T01830183
KNUI 250723Z AUTO 00000KT 1 3/4SM BR CLR 18/18 A2983 RMK AO2 T01830183=
KNUI 250740Z AUTO 00000KT 1/2SM FG VV003 18/18 A2983 RMK AO2 T01830183
KNUI 250740Z AUTO 00000KT 1/2SM FG VV003 18/18 A2983 RMK AO2 T01830183=
KNUI 250749Z AUTO 07003KT 1/4SM FG VV003 18/18 A2983 RMK AO2
KNUI 250749Z AUTO 07003KT 1/4SM FG VV003 18/18 A2983 RMK AO2=
KNUI 250753Z AUTO 07003KT 1/2SM FG VV003 18/18 A2983 RMK AO2 SLP101 T01830183
KNUI 250757Z AUTO 07003KT 1 1/4SM BR SCT003 18/18 A2983 RMK AO2 T01830183
KNUI 250753Z AUTO 07003KT 1/2SM FG VV003 18/18 A2983 RMK AO2 SLP101 T01830183=
KNUI 250757Z AUTO 07003KT 1 1/4SM BR SCT003 18/18 A2983 RMK AO2 T01830183=
KNUI 250802Z AUTO 00000KT 3SM BR SCT003 18/18 A2983 RMK AO2 T01830183
KNUI 250802Z AUTO 00000KT 3SM BR SCT003 18/18 A2983 RMK AO2 T01830183=
KNUI 250853Z AUTO 00000KT 4SM BR CLR 18/18 A2984 RMK AO2 SLP104 T01780178 53002
KNUI 250853Z AUTO 00000KT 4SM BR CLR 18/18 A2984 RMK AO2 SLP104 T01780178 53002=
KNUI 250921Z AUTO 00000KT 1 3/4SM BR CLR 18/18 A2984 RMK AO2 T01780178
KNUI 250921Z AUTO 00000KT 1 3/4SM BR CLR 18/18 A2984 RMK AO2 T01780178=
KNUI 250930Z AUTO 00000KT 3SM BR CLR 17/17 A2985 RMK AO2 T01720172
KNUI 250930Z AUTO 00000KT 3SM BR CLR 17/17 A2985 RMK AO2 T01720172=
KNUI 250942Z AUTO 00000KT 2SM BR CLR 17/17 A2985 RMK AO2 T01720172
KNUI 250942Z AUTO 00000KT 2SM BR CLR 17/17 A2985 RMK AO2 T01720172=
KNUI 250949Z AUTO 00000KT 2 1/2SM BR SCT004 17/17 A2985 RMK AO2
KNUI 250949Z AUTO 00000KT 2 1/2SM BR SCT004 17/17 A2985 RMK AO2=
KNUI 250953Z AUTO 00000KT 2 1/2SM BR SCT004 17/17 A2985 RMK AO2 SLP108 T01720172
KNUI 250957Z AUTO 00000KT 3SM BR BKN003 18/18 A2985 RMK AO2 T01780178
KNUI 250953Z AUTO 00000KT 2 1/2SM BR SCT004 17/17 A2985 RMK AO2 SLP108
 T01720172=
KNUI 250957Z AUTO 00000KT 3SM BR BKN003 18/18 A2985 RMK AO2 T01780178=
KNUI 251049Z AUTO 00000KT 1 1/4SM BR OVC002 19/19 A2986 RMK AO2
KNUI 251049Z AUTO 00000KT 1 1/4SM BR OVC002 19/19 A2986 RMK AO2=
KNUI 251051Z AUTO 00000KT 1/2SM FG OVC002 20/20 A2986 RMK AO2
KNUI 251051Z AUTO 00000KT 1/2SM FG OVC002 20/20 A2986 RMK AO2=
KNUI 251053Z AUTO 00000KT 1/4SM FG VV002 20/20 A2986 RMK AO2 SLP111 T02000200
KNUI 251053Z AUTO 00000KT 1/4SM FG VV002 20/20 A2986 RMK AO2 SLP111 T02000200=
KNUI 251104Z AUTO 00000KT M1/4SM FG VV002 21/21 A2986 RMK AO2 T02060206
KNUI 251104Z AUTO 00000KT M1/4SM FG VV002 21/21 A2986 RMK AO2 T02060206=
KNUI 251132Z AUTO 23003KT 1/4SM FG VV002 21/21 A2987 RMK AO2 T02060206
KNUI 251132Z AUTO 23003KT 1/4SM FG VV002 21/21 A2987 RMK AO2 T02060206=
KNUI 251153Z AUTO 00000KT M1/4SM FG VV002 21/21 A2988 RMK AO2 SLP116 70003
 T02110211 10211 20172 53009
KNUI 251153Z AUTO 00000KT M1/4SM FG VV002 21/21 A2988 RMK AO2 SLP116 70003
 T02110211 10211 20172 53009=